Year,Month,Day,Hour,Minute,Value (Times are PST for temperature in C)
2019,05,26,00,00,10.10
2019,05,26,00,01,10.10
2019,05,26,00,02,10.10
2019,05,26,00,03,10.10
2019,05,26,00,04,10.10
2019,05,26,00,05,10.10
2019,05,26,00,06,10.10
2019,05,26,00,07,10.10
2019,05,26,00,08,10.10
2019,05,26,00,09,10.10
2019,05,26,00,10,10.10
2019,05,26,00,11,10.10
2019,05,26,00,12,10.10
2019,05,26,00,13,10.10
2019,05,26,00,14,10.10
2019,05,26,00,15,10.10
2019,05,26,00,16,10.10
2019,05,26,00,17,10.10
2019,05,26,00,18,10.10
2019,05,26,00,19,10.10
2019,05,26,00,20,10.10
2019,05,26,00,21,10.10
2019,05,26,00,22,10.10
2019,05,26,00,23,10.10
2019,05,26,00,24,10.10
2019,05,26,00,25,10.10
2019,05,26,00,26,10.10
2019,05,26,00,27,10.10
2019,05,26,00,28,10.10
2019,05,26,00,29,10.10
2019,05,26,00,30,10.10
2019,05,26,00,31,10.10
2019,05,26,00,32,10.10
2019,05,26,00,33,10.00
2019,05,26,00,34,9.90
2019,05,26,00,35,9.90
2019,05,26,00,36,9.90
2019,05,26,00,37,9.90
2019,05,26,00,38,9.90
2019,05,26,00,39,9.90
2019,05,26,00,40,9.80
2019,05,26,00,41,9.80
2019,05,26,00,42,9.80
2019,05,26,00,43,9.70
2019,05,26,00,44,9.70
2019,05,26,00,45,9.70
2019,05,26,00,46,9.70
2019,05,26,00,47,9.70
2019,05,26,00,48,9.70
2019,05,26,00,49,9.60
2019,05,26,00,50,9.60
2019,05,26,00,51,9.60
2019,05,26,00,52,9.60
2019,05,26,00,53,9.60
2019,05,26,00,54,9.60
2019,05,26,00,55,9.60
2019,05,26,00,56,9.60
2019,05,26,00,57,9.60
2019,05,26,00,58,9.50
2019,05,26,00,59,9.50
2019,05,26,01,00,9.50
2019,05,26,01,01,9.40
2019,05,26,01,02,9.40
2019,05,26,01,03,9.40
2019,05,26,01,04,9.40
2019,05,26,01,05,9.30
2019,05,26,01,06,9.30
2019,05,26,01,07,9.30
2019,05,26,01,08,9.30
2019,05,26,01,09,9.30
2019,05,26,01,10,9.30
2019,05,26,01,11,9.30
2019,05,26,01,12,9.20
2019,05,26,01,13,9.20
2019,05,26,01,14,9.20
2019,05,26,01,15,9.20
2019,05,26,01,16,9.20
2019,05,26,01,17,9.20
2019,05,26,01,18,9.20
2019,05,26,01,19,9.20
2019,05,26,01,20,9.20
2019,05,26,01,21,9.20
2019,05,26,01,22,9.20
2019,05,26,01,23,9.20
2019,05,26,01,24,9.20
2019,05,26,01,25,9.10
2019,05,26,01,26,9.10
2019,05,26,01,27,9.10
2019,05,26,01,28,9.00
2019,05,26,01,29,9.00
2019,05,26,01,30,9.00
2019,05,26,01,31,9.00
2019,05,26,01,32,9.00
2019,05,26,01,33,8.90
2019,05,26,01,34,8.90
2019,05,26,01,35,8.90
2019,05,26,01,36,8.90
2019,05,26,01,37,8.90
2019,05,26,01,38,8.90
2019,05,26,01,39,8.80
2019,05,26,01,40,8.80
2019,05,26,01,41,8.80
2019,05,26,01,42,8.80
2019,05,26,01,43,8.80
2019,05,26,01,44,8.80
2019,05,26,01,45,8.80
2019,05,26,01,46,8.80
2019,05,26,01,47,8.70
2019,05,26,01,48,8.70
2019,05,26,01,49,8.70
2019,05,26,01,50,8.70
2019,05,26,01,51,8.70
2019,05,26,01,52,8.70
2019,05,26,01,53,8.70
2019,05,26,01,54,8.70
2019,05,26,01,55,8.70
2019,05,26,01,56,8.70
2019,05,26,01,57,8.60
2019,05,26,01,58,8.60
2019,05,26,01,59,8.60
2019,05,26,02,00,8.60
2019,05,26,02,01,8.60
2019,05,26,02,02,8.60
2019,05,26,02,03,8.60
2019,05,26,02,04,8.60
2019,05,26,02,05,8.60
2019,05,26,02,06,8.60
2019,05,26,02,07,8.50
2019,05,26,02,08,8.50
2019,05,26,02,09,8.50
2019,05,26,02,10,8.50
2019,05,26,02,11,8.50
2019,05,26,02,12,8.50
2019,05,26,02,13,8.50
2019,05,26,02,14,8.40
2019,05,26,02,15,8.40
2019,05,26,02,16,8.40
2019,05,26,02,17,8.40
2019,05,26,02,18,8.30
2019,05,26,02,19,8.30
2019,05,26,02,20,8.30
2019,05,26,02,21,8.30
2019,05,26,02,22,8.30
2019,05,26,02,23,8.30
2019,05,26,02,24,8.30
2019,05,26,02,25,8.30
2019,05,26,02,26,8.30
2019,05,26,02,27,8.30
2019,05,26,02,28,8.30
2019,05,26,02,29,8.30
2019,05,26,02,30,8.30
2019,05,26,02,31,8.30
2019,05,26,02,32,8.30
2019,05,26,02,33,8.30
2019,05,26,02,34,8.30
2019,05,26,02,35,8.20
2019,05,26,02,36,8.20
2019,05,26,02,37,8.20
2019,05,26,02,38,8.20
2019,05,26,02,39,8.20
2019,05,26,02,40,8.20
2019,05,26,02,41,8.20
2019,05,26,02,42,8.10
2019,05,26,02,43,8.10
2019,05,26,02,44,8.10
2019,05,26,02,45,8.10
2019,05,26,02,46,8.10
2019,05,26,02,47,8.10
2019,05,26,02,48,8.10
2019,05,26,02,49,8.10
2019,05,26,02,50,8.20
2019,05,26,02,51,8.20
2019,05,26,02,52,8.20
2019,05,26,02,53,8.10
2019,05,26,02,54,8.10
2019,05,26,02,55,8.10
2019,05,26,02,56,8.10
2019,05,26,02,57,8.10
2019,05,26,02,58,8.10
2019,05,26,02,59,8.10
2019,05,26,03,00,8.10
2019,05,26,03,01,8.10
2019,05,26,03,02,8.10
2019,05,26,03,03,8.10
2019,05,26,03,04,8.10
2019,05,26,03,05,8.10
2019,05,26,03,06,8.10
2019,05,26,03,07,8.10
2019,05,26,03,08,8.10
2019,05,26,03,09,8.00
2019,05,26,03,10,8.00
2019,05,26,03,11,8.00
2019,05,26,03,12,8.00
2019,05,26,03,13,8.00
2019,05,26,03,14,8.00
2019,05,26,03,15,8.00
2019,05,26,03,16,8.00
2019,05,26,03,17,8.00
2019,05,26,03,18,8.00
2019,05,26,03,19,8.00
2019,05,26,03,20,8.00
2019,05,26,03,21,8.00
2019,05,26,03,22,8.00
2019,05,26,03,23,8.00
2019,05,26,03,24,8.00
2019,05,26,03,25,8.00
2019,05,26,03,26,8.00
2019,05,26,03,27,8.10
2019,05,26,03,28,8.10
2019,05,26,03,29,8.10
2019,05,26,03,30,8.10
2019,05,26,03,31,8.10
2019,05,26,03,32,8.10
2019,05,26,03,33,8.10
2019,05,26,03,34,8.10
2019,05,26,03,35,8.10
2019,05,26,03,36,8.10
2019,05,26,03,37,8.10
2019,05,26,03,38,8.10
2019,05,26,03,39,8.10
2019,05,26,03,40,8.10
2019,05,26,03,41,8.10
2019,05,26,03,42,8.10
2019,05,26,03,43,8.10
2019,05,26,03,44,8.10
2019,05,26,03,45,8.10
2019,05,26,03,46,8.10
2019,05,26,03,47,8.10
2019,05,26,03,48,8.00
2019,05,26,03,49,8.00
2019,05,26,03,50,8.00
2019,05,26,03,51,8.00
2019,05,26,03,52,8.00
2019,05,26,03,53,7.90
2019,05,26,03,54,7.90
2019,05,26,03,55,7.90
2019,05,26,03,56,7.90
2019,05,26,03,57,7.90
2019,05,26,03,58,7.90
2019,05,26,03,59,7.80
2019,05,26,04,00,7.80
2019,05,26,04,01,7.80
2019,05,26,04,02,7.80
2019,05,26,04,03,7.80
2019,05,26,04,04,7.80
2019,05,26,04,05,7.80
2019,05,26,04,06,7.80
2019,05,26,04,07,7.80
2019,05,26,04,08,7.80
2019,05,26,04,09,7.80
2019,05,26,04,10,7.70
2019,05,26,04,11,7.70
2019,05,26,04,12,7.70
2019,05,26,04,13,7.70
2019,05,26,04,14,7.70
2019,05,26,04,15,7.70
2019,05,26,04,16,7.60
2019,05,26,04,17,7.60
2019,05,26,04,18,7.60
2019,05,26,04,19,7.60
2019,05,26,04,20,7.60
2019,05,26,04,21,7.50
2019,05,26,04,22,7.50
2019,05,26,04,23,7.50
2019,05,26,04,24,7.50
2019,05,26,04,25,7.50
2019,05,26,04,26,7.50
2019,05,26,04,27,7.50
2019,05,26,04,28,7.50
2019,05,26,04,29,7.50
2019,05,26,04,30,7.50
2019,05,26,04,31,7.50
2019,05,26,04,32,7.50
2019,05,26,04,33,7.50
2019,05,26,04,34,7.50
2019,05,26,04,35,7.50
2019,05,26,04,36,7.50
2019,05,26,04,37,7.40
2019,05,26,04,38,7.40
2019,05,26,04,39,7.40
2019,05,26,04,40,7.30
2019,05,26,04,41,7.30
2019,05,26,04,42,7.30
2019,05,26,04,43,7.30
2019,05,26,04,44,7.30
2019,05,26,04,45,7.30
2019,05,26,04,46,7.30
2019,05,26,04,47,7.30
2019,05,26,04,48,7.30
2019,05,26,04,49,7.30
2019,05,26,04,50,7.30
2019,05,26,04,51,7.30
2019,05,26,04,52,7.30
2019,05,26,04,53,7.30
2019,05,26,04,54,7.30
2019,05,26,04,55,7.30
2019,05,26,04,56,7.30
2019,05,26,04,57,7.30
2019,05,26,04,58,7.30
2019,05,26,04,59,7.30
2019,05,26,05,00,7.30
2019,05,26,05,01,7.30
2019,05,26,05,02,7.30
2019,05,26,05,03,7.30
2019,05,26,05,04,7.30
2019,05,26,05,05,7.30
2019,05,26,05,06,7.30
2019,05,26,05,07,7.30
2019,05,26,05,08,7.30
2019,05,26,05,09,7.30
2019,05,26,05,10,7.40
2019,05,26,05,11,7.40
2019,05,26,05,12,7.40
2019,05,26,05,13,7.40
2019,05,26,05,14,7.40
2019,05,26,05,15,7.40
2019,05,26,05,16,7.40
2019,05,26,05,17,7.40
2019,05,26,05,18,7.40
2019,05,26,05,19,7.40
2019,05,26,05,20,7.40
2019,05,26,05,21,7.40
2019,05,26,05,22,7.40
2019,05,26,05,23,7.40
2019,05,26,05,24,7.40
2019,05,26,05,25,7.30
2019,05,26,05,26,7.30
2019,05,26,05,27,7.30
2019,05,26,05,28,7.30
2019,05,26,05,29,7.30
2019,05,26,05,30,7.30
2019,05,26,05,31,7.30
2019,05,26,05,32,7.20
2019,05,26,05,33,7.20
2019,05,26,05,34,7.20
2019,05,26,05,35,7.20
2019,05,26,05,36,7.20
2019,05,26,05,37,7.20
2019,05,26,05,38,7.20
2019,05,26,05,39,7.20
2019,05,26,05,40,7.20
2019,05,26,05,41,7.20
2019,05,26,05,42,7.20
2019,05,26,05,43,7.20
2019,05,26,05,44,7.20
2019,05,26,05,45,7.20
2019,05,26,05,46,7.20
2019,05,26,05,47,7.20
2019,05,26,05,48,7.30
2019,05,26,05,49,7.30
2019,05,26,05,50,7.30
2019,05,26,05,51,7.30
2019,05,26,05,52,7.30
2019,05,26,05,53,7.30
2019,05,26,05,54,7.40
2019,05,26,05,55,7.50
2019,05,26,05,56,7.50
2019,05,26,05,57,7.60
2019,05,26,05,58,7.60
2019,05,26,05,59,7.60
2019,05,26,06,00,7.70
2019,05,26,06,01,7.70
2019,05,26,06,02,7.80
2019,05,26,06,03,7.80
2019,05,26,06,04,7.80
2019,05,26,06,05,7.90
2019,05,26,06,06,7.90
2019,05,26,06,07,8.00
2019,05,26,06,08,8.00
2019,05,26,06,09,8.10
2019,05,26,06,10,8.10
2019,05,26,06,11,8.20
2019,05,26,06,12,8.20
2019,05,26,06,13,8.20
2019,05,26,06,14,8.20
2019,05,26,06,15,8.20
2019,05,26,06,16,8.20
2019,05,26,06,17,8.20
2019,05,26,06,18,8.30
2019,05,26,06,19,8.30
2019,05,26,06,20,8.20
2019,05,26,06,21,8.30
2019,05,26,06,22,8.30
2019,05,26,06,23,8.30
2019,05,26,06,24,8.30
2019,05,26,06,25,8.30
2019,05,26,06,26,8.40
2019,05,26,06,27,8.40
2019,05,26,06,28,8.50
2019,05,26,06,29,8.50
2019,05,26,06,30,8.60
2019,05,26,06,31,8.70
2019,05,26,06,32,8.70
2019,05,26,06,33,8.70
2019,05,26,06,34,8.70
2019,05,26,06,35,8.80
2019,05,26,06,36,8.80
2019,05,26,06,37,8.80
2019,05,26,06,38,8.90
2019,05,26,06,39,8.90
2019,05,26,06,40,9.00
2019,05,26,06,41,9.00
2019,05,26,06,42,9.00
2019,05,26,06,43,9.10
2019,05,26,06,44,9.10
2019,05,26,06,45,9.20
2019,05,26,06,46,9.20
2019,05,26,06,47,9.30
2019,05,26,06,48,9.30
2019,05,26,06,49,9.40
2019,05,26,06,50,9.50
2019,05,26,06,51,9.50
2019,05,26,06,52,9.60
2019,05,26,06,53,9.70
2019,05,26,06,54,9.70
2019,05,26,06,55,9.70
2019,05,26,06,56,9.80
2019,05,26,06,57,9.80
2019,05,26,06,58,9.90
2019,05,26,06,59,9.90
2019,05,26,07,00,10.10
2019,05,26,07,01,10.10
2019,05,26,07,02,10.20
2019,05,26,07,03,10.30
2019,05,26,07,04,10.30
2019,05,26,07,05,10.40
2019,05,26,07,06,10.40
2019,05,26,07,07,10.50
2019,05,26,07,08,10.60
2019,05,26,07,09,10.60
2019,05,26,07,10,10.60
2019,05,26,07,11,10.70
2019,05,26,07,12,10.70
2019,05,26,07,13,10.70
2019,05,26,07,14,10.70
2019,05,26,07,15,10.70
2019,05,26,07,16,10.70
2019,05,26,07,17,10.80
2019,05,26,07,18,10.80
2019,05,26,07,19,10.80
2019,05,26,07,20,10.90
2019,05,26,07,21,10.90
2019,05,26,07,22,10.90
2019,05,26,07,23,10.90
2019,05,26,07,24,10.90
2019,05,26,07,25,10.90
2019,05,26,07,26,10.90
2019,05,26,07,27,11.00
2019,05,26,07,28,11.10
2019,05,26,07,29,11.10
2019,05,26,07,30,11.10
2019,05,26,07,31,11.10
2019,05,26,07,32,11.20
2019,05,26,07,33,11.20
2019,05,26,07,34,11.20
2019,05,26,07,35,11.30
2019,05,26,07,36,11.40
2019,05,26,07,37,11.40
2019,05,26,07,38,11.40
2019,05,26,07,39,11.50
2019,05,26,07,40,11.60
2019,05,26,07,41,11.60
2019,05,26,07,42,11.70
2019,05,26,07,43,11.80
2019,05,26,07,44,11.90
2019,05,26,07,45,12.00
2019,05,26,07,46,12.10
2019,05,26,07,47,12.30
2019,05,26,07,48,12.30
2019,05,26,07,49,12.40
2019,05,26,07,50,12.50
2019,05,26,07,51,12.60
2019,05,26,07,52,12.60
2019,05,26,07,53,12.70
2019,05,26,07,54,12.80
2019,05,26,07,55,12.80
2019,05,26,07,56,12.90
2019,05,26,07,57,13.00
2019,05,26,07,58,13.00
2019,05,26,07,59,13.00
2019,05,26,08,00,13.00
2019,05,26,08,01,13.00
2019,05,26,08,02,13.10
2019,05,26,08,03,13.10
2019,05,26,08,04,13.10
2019,05,26,08,05,13.20
2019,05,26,08,06,13.20
2019,05,26,08,07,13.20
2019,05,26,08,08,13.30
2019,05,26,08,09,13.30
2019,05,26,08,10,13.30
2019,05,26,08,11,13.30
2019,05,26,08,12,13.30
2019,05,26,08,13,13.30
2019,05,26,08,14,13.40
2019,05,26,08,15,13.40
2019,05,26,08,16,13.50
2019,05,26,08,17,13.50
2019,05,26,08,18,13.60
2019,05,26,08,19,13.70
2019,05,26,08,20,13.70
2019,05,26,08,21,13.80
2019,05,26,08,22,13.90
2019,05,26,08,23,13.90
2019,05,26,08,24,14.00
2019,05,26,08,25,14.00
2019,05,26,08,26,14.10
2019,05,26,08,27,14.20
2019,05,26,08,28,14.30
2019,05,26,08,29,14.50
2019,05,26,08,30,14.60
2019,05,26,08,31,14.70
2019,05,26,08,32,14.80
2019,05,26,08,33,14.90
2019,05,26,08,34,15.00
2019,05,26,08,35,15.00
2019,05,26,08,36,15.00
2019,05,26,08,37,15.00
2019,05,26,08,38,15.10
2019,05,26,08,39,15.10
2019,05,26,08,40,15.20
2019,05,26,08,41,15.30
2019,05,26,08,42,15.30
2019,05,26,08,43,15.30
2019,05,26,08,44,15.40
2019,05,26,08,45,15.50
2019,05,26,08,46,15.50
2019,05,26,08,47,15.50
2019,05,26,08,48,15.60
2019,05,26,08,49,15.60
2019,05,26,08,50,15.60
2019,05,26,08,51,15.60
2019,05,26,08,52,15.50
2019,05,26,08,53,15.40
2019,05,26,08,54,15.40
2019,05,26,08,55,15.40
2019,05,26,08,56,15.40
2019,05,26,08,57,15.40
2019,05,26,08,58,15.50
2019,05,26,08,59,15.50
2019,05,26,09,00,15.60
2019,05,26,09,01,15.80
2019,05,26,09,02,15.90
2019,05,26,09,03,16.00
2019,05,26,09,04,16.10
2019,05,26,09,05,16.20
2019,05,26,09,06,16.30
2019,05,26,09,07,16.20
2019,05,26,09,08,16.20
2019,05,26,09,09,16.10
2019,05,26,09,10,16.10
2019,05,26,09,11,16.10
2019,05,26,09,12,16.00
2019,05,26,09,13,16.10
2019,05,26,09,14,16.10
2019,05,26,09,15,16.10
2019,05,26,09,16,16.20
2019,05,26,09,17,16.30
2019,05,26,09,18,16.30
2019,05,26,09,19,16.40
2019,05,26,09,20,16.50
2019,05,26,09,21,16.60
2019,05,26,09,22,16.60
2019,05,26,09,23,16.50
2019,05,26,09,24,16.40
2019,05,26,09,25,16.40
2019,05,26,09,26,16.40
2019,05,26,09,27,16.40
2019,05,26,09,28,16.40
2019,05,26,09,29,16.40
2019,05,26,09,30,16.40
2019,05,26,09,31,16.50
2019,05,26,09,32,16.60
2019,05,26,09,33,16.70
2019,05,26,09,34,16.70
2019,05,26,09,35,16.90
2019,05,26,09,36,17.00
2019,05,26,09,37,17.00
2019,05,26,09,38,17.00
2019,05,26,09,39,16.90
2019,05,26,09,40,16.90
2019,05,26,09,41,16.80
2019,05,26,09,42,16.70
2019,05,26,09,43,16.70
2019,05,26,09,44,16.60
2019,05,26,09,45,16.50
2019,05,26,09,46,16.40
2019,05,26,09,47,16.50
2019,05,26,09,48,16.40
2019,05,26,09,49,16.40
2019,05,26,09,50,16.40
2019,05,26,09,51,16.40
2019,05,26,09,52,16.30
2019,05,26,09,53,16.20
2019,05,26,09,54,16.20
2019,05,26,09,55,16.20
2019,05,26,09,56,16.10
2019,05,26,09,57,16.10
2019,05,26,09,58,16.10
2019,05,26,09,59,16.10
2019,05,26,10,00,16.20
2019,05,26,10,01,16.20
2019,05,26,10,02,16.20
2019,05,26,10,03,16.20
2019,05,26,10,04,16.20
2019,05,26,10,05,16.20
2019,05,26,10,06,16.20
2019,05,26,10,07,16.20
2019,05,26,10,08,16.20
2019,05,26,10,09,16.10
2019,05,26,10,10,16.10
2019,05,26,10,11,16.10
2019,05,26,10,12,16.10
2019,05,26,10,13,16.10
2019,05,26,10,14,16.10
2019,05,26,10,15,16.20
2019,05,26,10,16,16.30
2019,05,26,10,17,16.30
2019,05,26,10,18,16.30
2019,05,26,10,19,16.30
2019,05,26,10,20,16.30
2019,05,26,10,21,16.40
2019,05,26,10,22,16.40
2019,05,26,10,23,16.40
2019,05,26,10,24,16.60
2019,05,26,10,25,16.60
2019,05,26,10,26,16.70
2019,05,26,10,27,16.70
2019,05,26,10,28,16.70
2019,05,26,10,29,16.70
2019,05,26,10,30,16.70
2019,05,26,10,31,16.70
2019,05,26,10,32,16.60
2019,05,26,10,33,16.40
2019,05,26,10,34,16.30
2019,05,26,10,35,16.20
2019,05,26,10,36,16.20
2019,05,26,10,37,16.20
2019,05,26,10,38,16.20
2019,05,26,10,39,16.20
2019,05,26,10,40,16.10
2019,05,26,10,41,16.10
2019,05,26,10,42,16.10
2019,05,26,10,43,16.10
2019,05,26,10,44,16.10
2019,05,26,10,45,16.10
2019,05,26,10,46,16.10
2019,05,26,10,47,16.10
2019,05,26,10,48,16.10
2019,05,26,10,49,16.20
2019,05,26,10,50,16.10
2019,05,26,10,51,16.10
2019,05,26,10,52,16.10
2019,05,26,10,53,16.10
2019,05,26,10,54,16.10
2019,05,26,10,55,16.10
2019,05,26,10,56,16.20
2019,05,26,10,57,16.20
2019,05,26,10,58,16.30
2019,05,26,10,59,16.30
2019,05,26,11,00,16.40
2019,05,26,11,01,16.40
2019,05,26,11,02,16.50
2019,05,26,11,03,16.60
2019,05,26,11,04,16.70
2019,05,26,11,05,16.60
2019,05,26,11,06,16.60
2019,05,26,11,07,16.60
2019,05,26,11,08,16.70
2019,05,26,11,09,16.70
2019,05,26,11,10,16.70
2019,05,26,11,11,16.70
2019,05,26,11,12,16.70
2019,05,26,11,13,16.70
2019,05,26,11,14,16.70
2019,05,26,11,15,16.70
2019,05,26,11,16,16.70
2019,05,26,11,17,16.70
2019,05,26,11,18,16.70
2019,05,26,11,19,16.70
2019,05,26,11,20,16.70
2019,05,26,11,21,16.50
2019,05,26,11,22,16.40
2019,05,26,11,23,16.30
2019,05,26,11,24,16.20
2019,05,26,11,25,16.20
2019,05,26,11,26,16.20
2019,05,26,11,27,16.20
2019,05,26,11,28,16.20
2019,05,26,11,29,16.30
2019,05,26,11,30,16.40
2019,05,26,11,31,16.40
2019,05,26,11,32,16.40
2019,05,26,11,33,16.50
2019,05,26,11,34,16.50
2019,05,26,11,35,16.40
2019,05,26,11,36,16.40
2019,05,26,11,37,16.30
2019,05,26,11,38,16.40
2019,05,26,11,39,16.40
2019,05,26,11,40,16.40
2019,05,26,11,41,16.40
2019,05,26,11,42,16.40
2019,05,26,11,43,16.40
2019,05,26,11,44,16.40
2019,05,26,11,45,16.40
2019,05,26,11,46,16.40
2019,05,26,11,47,16.40
2019,05,26,11,48,16.30
2019,05,26,11,49,16.30
2019,05,26,11,50,16.20
2019,05,26,11,51,16.20
2019,05,26,11,52,16.10
2019,05,26,11,53,16.10
2019,05,26,11,54,16.10
2019,05,26,11,55,16.10
2019,05,26,11,56,16.20
2019,05,26,11,57,16.20
2019,05,26,11,58,16.30
2019,05,26,11,59,16.20
2019,05,26,12,00,16.20
2019,05,26,12,01,16.20
2019,05,26,12,02,16.20
2019,05,26,12,03,16.20
2019,05,26,12,04,16.20
2019,05,26,12,05,16.20
2019,05,26,12,06,16.20
2019,05,26,12,07,16.20
2019,05,26,12,08,16.20
2019,05,26,12,09,16.20
2019,05,26,12,10,16.20
2019,05,26,12,11,16.20
2019,05,26,12,12,16.10
2019,05,26,12,13,16.10
2019,05,26,12,14,16.20
2019,05,26,12,15,16.20
2019,05,26,12,16,16.30
2019,05,26,12,17,16.30
2019,05,26,12,18,16.40
2019,05,26,12,19,16.40
2019,05,26,12,20,16.50
2019,05,26,12,21,16.60
2019,05,26,12,22,16.70
2019,05,26,12,23,16.70
2019,05,26,12,24,16.90
2019,05,26,12,25,17.00
2019,05,26,12,26,17.00
2019,05,26,12,27,17.00
2019,05,26,12,28,17.00
2019,05,26,12,29,17.00
2019,05,26,12,30,17.10
2019,05,26,12,31,17.30
2019,05,26,12,32,17.40
2019,05,26,12,33,17.40
2019,05,26,12,34,17.50
2019,05,26,12,35,17.50
2019,05,26,12,36,17.60
2019,05,26,12,37,17.70
2019,05,26,12,38,17.70
2019,05,26,12,39,17.80
2019,05,26,12,40,17.80
2019,05,26,12,41,17.90
2019,05,26,12,42,17.90
2019,05,26,12,43,17.90
2019,05,26,12,44,17.80
2019,05,26,12,45,17.70
2019,05,26,12,46,17.70
2019,05,26,12,47,17.60
2019,05,26,12,48,17.60
2019,05,26,12,49,17.60
2019,05,26,12,50,17.70
2019,05,26,12,51,17.80
2019,05,26,12,52,17.80
2019,05,26,12,53,17.80
2019,05,26,12,54,17.80
2019,05,26,12,55,17.80
2019,05,26,12,56,17.80
2019,05,26,12,57,17.80
2019,05,26,12,58,17.80
2019,05,26,12,59,17.80
2019,05,26,13,00,17.90
2019,05,26,13,01,17.90
2019,05,26,13,02,18.00
2019,05,26,13,03,18.00
2019,05,26,13,04,17.90
2019,05,26,13,05,17.90
2019,05,26,13,06,17.90
2019,05,26,13,07,18.00
2019,05,26,13,08,18.10
2019,05,26,13,09,18.10
2019,05,26,13,10,18.10
2019,05,26,13,11,18.20
2019,05,26,13,12,18.20
2019,05,26,13,13,18.20
2019,05,26,13,14,18.20
2019,05,26,13,15,18.20
2019,05,26,13,16,18.20
2019,05,26,13,17,18.20
2019,05,26,13,18,18.20
2019,05,26,13,19,18.20
2019,05,26,13,20,18.10
2019,05,26,13,21,18.10
2019,05,26,13,22,18.10
2019,05,26,13,23,18.10
2019,05,26,13,24,18.00
2019,05,26,13,25,17.90
2019,05,26,13,26,17.90
2019,05,26,13,27,17.90
2019,05,26,13,28,17.80
2019,05,26,13,29,17.70
2019,05,26,13,30,17.60
2019,05,26,13,31,17.50
2019,05,26,13,32,17.40
2019,05,26,13,33,17.50
2019,05,26,13,34,17.40
2019,05,26,13,35,17.30
2019,05,26,13,36,17.30
2019,05,26,13,37,17.30
2019,05,26,13,38,17.30
2019,05,26,13,39,17.30
2019,05,26,13,40,17.20
2019,05,26,13,41,17.10
2019,05,26,13,42,17.00
2019,05,26,13,43,16.90
2019,05,26,13,44,16.80
2019,05,26,13,45,16.70
2019,05,26,13,46,16.60
2019,05,26,13,47,16.50
2019,05,26,13,48,16.40
2019,05,26,13,49,16.20
2019,05,26,13,50,16.10
2019,05,26,13,51,16.00
2019,05,26,13,52,15.90
2019,05,26,13,53,15.90
2019,05,26,13,54,15.90
2019,05,26,13,55,15.90
2019,05,26,13,56,16.00
2019,05,26,13,57,16.00
2019,05,26,13,58,16.10
2019,05,26,13,59,16.10
2019,05,26,14,00,16.10
2019,05,26,14,01,16.10
2019,05,26,14,02,16.10
2019,05,26,14,03,16.20
2019,05,26,14,04,16.20
2019,05,26,14,05,16.30
2019,05,26,14,06,16.30
2019,05,26,14,07,16.30
2019,05,26,14,08,16.40
2019,05,26,14,09,16.40
2019,05,26,14,10,16.40
2019,05,26,14,11,16.40
2019,05,26,14,12,16.40
2019,05,26,14,13,16.30
2019,05,26,14,14,16.30
2019,05,26,14,15,16.40
2019,05,26,14,16,16.40
2019,05,26,14,17,16.40
2019,05,26,14,18,16.40
2019,05,26,14,19,16.50
2019,05,26,14,20,16.60
2019,05,26,14,21,16.70
2019,05,26,14,22,16.70
2019,05,26,14,23,16.80
2019,05,26,14,24,16.90
2019,05,26,14,25,16.90
2019,05,26,14,26,17.00
2019,05,26,14,27,17.10
2019,05,26,14,28,17.20
2019,05,26,14,29,17.30
2019,05,26,14,30,17.40
2019,05,26,14,31,17.50
2019,05,26,14,32,17.70
2019,05,26,14,33,17.80
2019,05,26,14,34,18.00
2019,05,26,14,35,18.20
2019,05,26,14,36,18.30
2019,05,26,14,37,18.40
2019,05,26,14,38,18.60
2019,05,26,14,39,18.70
2019,05,26,14,40,18.80
2019,05,26,14,41,18.90
2019,05,26,14,42,18.90
2019,05,26,14,43,19.10
2019,05,26,14,44,19.10
2019,05,26,14,45,19.20
2019,05,26,14,46,19.20
2019,05,26,14,47,19.10
2019,05,26,14,48,19.10
2019,05,26,14,49,19.10
2019,05,26,14,50,19.10
2019,05,26,14,51,19.10
2019,05,26,14,52,19.30
2019,05,26,14,53,19.40
2019,05,26,14,54,19.50
2019,05,26,14,55,19.60
2019,05,26,14,56,19.60
2019,05,26,14,57,19.70
2019,05,26,14,58,19.70
2019,05,26,14,59,19.80
2019,05,26,15,00,19.80
2019,05,26,15,01,19.80
2019,05,26,15,02,19.80
2019,05,26,15,03,19.90
2019,05,26,15,04,19.90
2019,05,26,15,05,19.90
2019,05,26,15,06,19.90
2019,05,26,15,07,19.90
2019,05,26,15,08,19.90
2019,05,26,15,09,19.90
2019,05,26,15,10,19.90
2019,05,26,15,11,19.90
2019,05,26,15,12,19.90
2019,05,26,15,13,20.00
2019,05,26,15,14,20.10
2019,05,26,15,15,20.20
2019,05,26,15,16,20.20
2019,05,26,15,17,20.10
2019,05,26,15,18,20.10
2019,05,26,15,19,20.10
2019,05,26,15,20,20.10
2019,05,26,15,21,20.00
2019,05,26,15,22,19.90
2019,05,26,15,23,19.90
2019,05,26,15,24,19.90
2019,05,26,15,25,19.90
2019,05,26,15,26,19.90
2019,05,26,15,27,19.90
2019,05,26,15,28,19.80
2019,05,26,15,29,19.80
2019,05,26,15,30,19.80
2019,05,26,15,31,19.90
2019,05,26,15,32,20.00
2019,05,26,15,33,20.20
2019,05,26,15,34,20.30
2019,05,26,15,35,20.40
2019,05,26,15,36,20.50
2019,05,26,15,37,20.60
2019,05,26,15,38,20.80
2019,05,26,15,39,20.90
2019,05,26,15,40,21.00
2019,05,26,15,41,21.10
2019,05,26,15,42,21.20
2019,05,26,15,43,21.30
2019,05,26,15,44,21.30
2019,05,26,15,45,21.30
2019,05,26,15,46,21.30
2019,05,26,15,47,21.20
2019,05,26,15,48,21.10
2019,05,26,15,49,20.90
2019,05,26,15,50,20.90
2019,05,26,15,51,20.90
2019,05,26,15,52,21.00
2019,05,26,15,53,21.00
2019,05,26,15,54,21.10
2019,05,26,15,55,21.10
2019,05,26,15,56,21.10
2019,05,26,15,57,21.10
2019,05,26,15,58,21.10
2019,05,26,15,59,21.10
2019,05,26,16,00,21.20
2019,05,26,16,01,21.30
2019,05,26,16,02,21.30
2019,05,26,16,03,21.40
2019,05,26,16,04,21.50
2019,05,26,16,05,21.60
2019,05,26,16,06,21.60
2019,05,26,16,07,21.60
2019,05,26,16,08,21.70
2019,05,26,16,09,21.80
2019,05,26,16,10,21.80
2019,05,26,16,11,21.80
2019,05,26,16,12,21.80
2019,05,26,16,13,21.80
2019,05,26,16,14,21.70
2019,05,26,16,15,21.50
2019,05,26,16,16,21.30
2019,05,26,16,17,21.20
2019,05,26,16,18,21.10
2019,05,26,16,19,21.00
2019,05,26,16,20,20.90
2019,05,26,16,21,20.90
2019,05,26,16,22,20.90
2019,05,26,16,23,21.00
2019,05,26,16,24,21.00
2019,05,26,16,25,21.10
2019,05,26,16,26,21.10
2019,05,26,16,27,21.20
2019,05,26,16,28,21.30
2019,05,26,16,29,21.20
2019,05,26,16,30,21.10
2019,05,26,16,31,20.90
2019,05,26,16,32,20.70
2019,05,26,16,33,20.50
2019,05,26,16,34,20.40
2019,05,26,16,35,20.20
2019,05,26,16,36,20.10
2019,05,26,16,37,20.00
2019,05,26,16,38,19.90
2019,05,26,16,39,19.70
2019,05,26,16,40,19.50
2019,05,26,16,41,19.40
2019,05,26,16,42,19.30
2019,05,26,16,43,19.20
2019,05,26,16,44,19.10
2019,05,26,16,45,19.00
2019,05,26,16,46,18.90
2019,05,26,16,47,18.70
2019,05,26,16,48,18.60
2019,05,26,16,49,18.60
2019,05,26,16,50,18.60
2019,05,26,16,51,18.70
2019,05,26,16,52,18.70
2019,05,26,16,53,18.70
2019,05,26,16,54,18.70
2019,05,26,16,55,18.90
2019,05,26,16,56,18.90
2019,05,26,16,57,18.90
2019,05,26,16,58,19.10
2019,05,26,16,59,19.10
2019,05,26,17,00,19.20
2019,05,26,17,01,19.30
2019,05,26,17,02,19.40
2019,05,26,17,03,19.40
2019,05,26,17,04,19.40
2019,05,26,17,05,19.40
2019,05,26,17,06,19.40
2019,05,26,17,07,19.40
2019,05,26,17,08,19.50
2019,05,26,17,09,19.60
2019,05,26,17,10,19.70
2019,05,26,17,11,19.80
2019,05,26,17,12,19.90
2019,05,26,17,13,20.10
2019,05,26,17,14,20.20
2019,05,26,17,15,20.20
2019,05,26,17,16,20.20
2019,05,26,17,17,20.20
2019,05,26,17,18,20.20
2019,05,26,17,19,20.20
2019,05,26,17,20,20.20
2019,05,26,17,21,20.20
2019,05,26,17,22,20.20
2019,05,26,17,23,20.30
2019,05,26,17,24,20.30
2019,05,26,17,25,20.40
2019,05,26,17,26,20.50
2019,05,26,17,27,20.50
2019,05,26,17,28,20.50
2019,05,26,17,29,20.50
2019,05,26,17,30,20.60
2019,05,26,17,31,20.60
2019,05,26,17,32,20.60
2019,05,26,17,33,20.60
2019,05,26,17,34,20.50
2019,05,26,17,35,20.50
2019,05,26,17,36,20.40